Weather History for Sparta, WI

Change the Weather History Date:

Sunday, November 11, 2012

  Actual Average Record
Temperature  
Mean Temperature 46 °F -  
Max Temperature 64 °F 43 °F 71 °F (1964)
Min Temperature 28 °F 27 °F 6 °F (1950)
Degree Days  
Heating Degree Days 19    
Moisture  
Dew Point 40 °F    
Average Humidity 81    
Maximum Humidity 100    
Minimum Humidity 45    
Precipitation  
Precipitation 0.72 in - - ()
Sea Level Pressure  
Sea Level Pressure 29.75 in    
Wind  
Wind Speed 12 mph (SW)    
Max Wind Speed 17 mph    
Max Gust Speed 29 mph    
Visibility 9 miles    
Events Rain , Thunderstorm    
Averages and records for this station are not official NWS values.
T = Trace of Precipitation, MM = Missing Value Source: NWS Daily Summary

Daily Weather History Graph

Daily Weather History Graph

Search for Another Location

Airport:

Trip Planner

Search our weather history database for the weather conditions in past years. The results will help you decide how hot, cold, wet, or windy it might be!

Date:

Astronomy

Nov. 11, 2012 Rise Set
Actual Time 6:53 AM CST 4:40 PM CST
Civil Twilight 6:22 AM CST 5:11 PM CST
Nautical Twilight 5:47 AM CST 5:45 PM CST
Astronomical Twilight 5:13 AM CST 6:19 PM CST
Moon 4:03 AM CST (11/11) 3:07 PM CST (11/11)
Length of Visible Light 10h 48m
Length of Day
9h 47m
Waning Crescent, 7% of the Moon is Illuminated
Nov 11
Waning Crescent
Nov 13
New
Nov 20
First Quarter
Nov 28
Full
Dec 6
Last Quarter

Hourly Weather History & Observations

Time (CST) Temp. Windchill Dew Point Humidity Pressure Visibility Wind Dir Wind Speed Gust Speed Precip Events Conditions
12:35 AM 64.4 °F - 44.6 °F 49% 29.68 in 10.0 mi South 16.1 mph 24.2 mph N/A   Overcast
12:55 AM 64.4 °F - 44.6 °F 49% 29.68 in 10.0 mi South 15.0 mph 23.0 mph N/A   Overcast
1:15 AM 64.4 °F - 42.8 °F 45% 29.68 in 10.0 mi SSW 11.5 mph 28.8 mph N/A   Overcast
1:35 AM 64.4 °F - 42.8 °F 45% 29.69 in 10.0 mi South 17.3 mph 23.0 mph N/A   Overcast
1:55 AM 64.4 °F - 42.8 °F 45% 29.69 in 10.0 mi South 16.1 mph 21.9 mph N/A Thunderstorm Overcast
2:15 AM 64.4 °F - 44.6 °F 49% 29.69 in 10.0 mi South 15.0 mph 25.3 mph N/A   Overcast
2:35 AM 64.4 °F - 44.6 °F 49% 29.70 in 10.0 mi South 9.2 mph 19.6 mph N/A   Overcast
2:55 AM 64.4 °F - 44.6 °F 49% 29.71 in 10.0 mi South 13.8 mph 20.7 mph N/A   Overcast
3:15 AM 62.6 °F - 44.6 °F 52% 29.71 in 10.0 mi South 16.1 mph 19.6 mph N/A   Mostly Cloudy
3:35 AM 62.6 °F - 44.6 °F 52% 29.71 in 10.0 mi SSW 13.8 mph 27.6 mph N/A   Mostly Cloudy
3:55 AM 62.6 °F - 46.4 °F 55% 29.70 in 10.0 mi South 11.5 mph 25.3 mph N/A   Overcast
4:15 AM 62.6 °F - 46.4 °F 55% 29.70 in 10.0 mi South 12.7 mph 20.7 mph N/A   Scattered Clouds
4:35 AM 62.6 °F - 46.4 °F 55% 29.67 in 10.0 mi SSE 12.7 mph 20.7 mph N/A Rain Light Rain
4:55 AM 62.6 °F - 48.2 °F 59% 29.70 in 10.0 mi South 13.8 mph 24.2 mph N/A   Clear
5:15 AM 60.8 °F - 48.2 °F 63% 29.70 in 10.0 mi SSW 9.2 mph 21.9 mph N/A   Scattered Clouds
5:35 AM 60.8 °F - 50.0 °F 68% 29.70 in 10.0 mi South 11.5 mph 21.9 mph N/A Rain Light Rain
5:55 AM 60.8 °F - 50.0 °F 68% 29.69 in 10.0 mi South 13.8 mph 21.9 mph N/A   Mostly Cloudy
6:15 AM 60.8 °F - 50.0 °F 68% 29.67 in 10.0 mi SSE 12.7 mph 18.4 mph N/A Rain Light Rain
6:35 AM 59.0 °F - 51.8 °F 77% 29.65 in 10.0 mi South 8.1 mph - N/A   Clear
6:55 AM 59.0 °F - 51.8 °F 77% 29.65 in 10.0 mi South 9.2 mph - N/A   Clear
7:35 AM 57.2 °F - 53.6 °F 88% 29.67 in 10.0 mi SSE 11.5 mph 18.4 mph 0.02 in Rain Light Rain
8:15 AM 57.2 °F - 55.4 °F 94% 29.69 in 10.0 mi South 12.7 mph 20.7 mph 0.01 in Rain Light Rain
8:35 AM 57.2 °F - 53.6 °F 88% 29.68 in 7.0 mi South 9.2 mph 17.3 mph 0.02 in Rain Rain
8:55 AM 55.4 °F - 53.6 °F 94% 29.68 in 10.0 mi South 11.5 mph 17.3 mph 0.05 in Rain Rain
9:35 AM 55.4 °F - 53.6 °F 94% 29.67 in 7.0 mi South 10.4 mph - 0.01 in Rain Light Rain
9:55 AM 55.4 °F - 53.6 °F 94% 29.67 in 10.0 mi South 9.2 mph - 0.02 in Rain Light Rain
10:15 AM 55.4 °F - 53.6 °F 94% 29.67 in 5.0 mi South 9.2 mph - 0.02 in Rain Light Rain
10:35 AM 55.4 °F - 53.6 °F 94% 29.67 in 7.0 mi South 5.8 mph - 0.05 in Rain , Thunderstorm Rain
10:55 AM 55.4 °F - 53.6 °F 94% 29.68 in 4.0 mi South 9.2 mph - 0.11 in Rain Rain
11:15 AM 48.2 °F - 46.4 °F 93% 29.69 in 5.0 mi West 5.8 mph 13.8 mph 0.07 in Rain Rain
11:35 AM 46.4 °F 43.5 °F 46.4 °F 100% 29.68 in 7.0 mi West 5.8 mph - 0.09 in Rain Light Rain
12:15 PM 44.6 °F 41.4 °F 44.6 °F 100% 29.68 in 10.0 mi West 5.8 mph - 0.02 in Rain Rain
12:35 PM 44.6 °F 43.1 °F 42.8 °F 93% 29.68 in 7.0 mi West 3.5 mph - 0.05 in Rain Rain
12:55 PM 44.6 °F 40.2 °F 42.8 °F 93% 29.68 in 10.0 mi West 8.1 mph - 0.06 in Rain Rain
1:15 PM 42.8 °F 38.6 °F 42.8 °F 100% 29.69 in 7.0 mi West 6.9 mph - 0.03 in Rain Rain
1:35 PM 42.8 °F 38.6 °F 42.8 °F 100% 29.69 in 5.0 mi WNW 6.9 mph - 0.07 in Rain Rain
1:55 PM 41.0 °F 34.7 °F 41.0 °F 100% 29.70 in 10.0 mi West 10.4 mph - 0.10 in Rain Light Rain
2:15 PM 39.2 °F 34.2 °F 37.4 °F 93% 29.70 in 5.0 mi West 6.9 mph - 0.04 in Rain Rain
2:35 PM 37.4 °F 33.8 °F 37.4 °F 100% 29.67 in 5.0 mi West 4.6 mph - 0.09 in Rain Rain
2:55 PM 37.4 °F 33.8 °F 37.4 °F 100% 29.67 in 4.0 mi WSW 4.6 mph - 0.13 in Rain Rain
3:15 PM 37.4 °F 30.3 °F 37.4 °F 100% 29.71 in 4.0 mi West 10.4 mph - 0.04 in Rain Rain
3:35 PM 35.6 °F 29.2 °F 35.6 °F 100% 29.73 in 5.0 mi West 8.1 mph 18.4 mph 0.09 in Rain Light Rain
3:55 PM 35.6 °F 29.2 °F 35.6 °F 100% 29.73 in 4.0 mi West 8.1 mph - 0.13 in Rain Rain
4:15 PM 35.6 °F 29.2 °F 33.8 °F 93% 29.76 in 10.0 mi WSW 8.1 mph - 0.01 in Rain Light Rain
4:35 PM 33.8 °F 26.4 °F 33.8 °F 100% 29.75 in 10.0 mi West 9.2 mph - 0.01 in   Light Drizzle
4:55 PM 33.8 °F 27.7 °F 33.8 °F 100% 29.78 in 10.0 mi West 6.9 mph 17.3 mph 0.01 in   Overcast
5:15 PM 33.8 °F 24.8 °F 33.8 °F 100% 29.79 in 10.0 mi West 12.7 mph 17.3 mph N/A   Overcast
5:35 PM 33.8 °F 25.3 °F 32.0 °F 93% 29.81 in 5.0 mi West 11.5 mph - N/A   Overcast
5:55 PM 32.0 °F 25.6 °F 32.0 °F 100% 29.82 in 2.5 mi West 6.9 mph - N/A   Overcast
6:15 PM 32.0 °F 25.6 °F 32.0 °F 100% 29.79 in 5.0 mi West 6.9 mph - N/A   Overcast
6:35 PM 32.0 °F 24.2 °F 32.0 °F 100% 29.82 in 10.0 mi West 9.2 mph - N/A   Overcast
6:55 PM 32.0 °F 24.2 °F 32.0 °F 100% 29.85 in 10.0 mi West 9.2 mph - N/A   Overcast
7:15 PM 32.0 °F 22.1 °F 30.2 °F 93% 29.83 in 10.0 mi WNW 13.8 mph 20.7 mph N/A   Overcast
7:35 PM 32.0 °F 23.6 °F 30.2 °F 93% 29.85 in 10.0 mi West 10.4 mph 17.3 mph N/A   Overcast
7:55 PM 32.0 °F 23.0 °F 30.2 °F 93% 29.85 in 10.0 mi West 11.5 mph 17.3 mph N/A   Overcast
8:15 PM 32.0 °F 23.0 °F 28.4 °F 87% 29.87 in 10.0 mi West 11.5 mph 18.4 mph N/A   Overcast
8:35 PM 32.0 °F 21.6 °F 28.4 °F 87% 29.88 in 10.0 mi West 15.0 mph 18.4 mph N/A   Overcast
8:55 PM 30.2 °F 20.2 °F 26.6 °F 86% 29.88 in 10.0 mi West 12.7 mph 19.6 mph N/A   Overcast
9:15 PM 30.2 °F 21.3 °F 24.8 °F 80% 29.89 in 10.0 mi West 10.4 mph - N/A   Overcast
9:35 PM 30.2 °F 21.9 °F 23.0 °F 75% 29.92 in 10.0 mi WSW 9.2 mph 16.1 mph N/A   Overcast
9:55 PM 30.2 °F 21.3 °F 23.0 °F 75% 29.93 in 10.0 mi West 10.4 mph - N/A   Overcast
10:15 PM 28.4 °F 18.0 °F 23.0 °F 80% 29.92 in 10.0 mi West 12.7 mph 16.1 mph N/A   Overcast
10:35 PM 28.4 °F 19.7 °F 23.0 °F 80% 29.92 in 10.0 mi West 9.2 mph 18.4 mph N/A   Overcast
10:55 PM 28.4 °F 18.0 °F 21.2 °F 74% 29.92 in 10.0 mi West 12.7 mph 20.7 mph N/A   Overcast
11:15 PM 28.4 °F 19.7 °F 23.0 °F 80% 29.92 in 10.0 mi West 9.2 mph - N/A   Overcast
11:35 PM 28.4 °F 18.0 °F 21.2 °F 74% 29.94 in 10.0 mi West 12.7 mph 18.4 mph N/A   Overcast
11:55 PM 28.4 °F 19.7 °F 21.2 °F 74% 29.94 in 10.0 mi West 9.2 mph 17.3 mph N/A   Mostly Cloudy